Weather History for KRBW - January, 2013

Change the Weather History Date:

Thursday, January 31, 2013

  Actual Average Record
Temperature  
Mean Temperature 48 °F -  
Max Temperature 55 °F 62 °F 71 °F (2012)
Min Temperature 37 °F 35 °F 24 °F (2015)
Degree Days  
Heating Degree Days 17    
Moisture  
Dew Point 30 °F    
Average Humidity 52    
Maximum Humidity 100    
Minimum Humidity 24    
Precipitation  
Precipitation 0.00 in - - ()
Sea Level Pressure  
Sea Level Pressure 30.01 in    
Wind  
Wind Speed 13 mph (West)    
Max Wind Speed 25 mph    
Max Gust Speed 32 mph    
Visibility 10 miles    
Events Rain    
Averages and records for this station are not official NWS values.
T = Trace of Precipitation, MM = Missing Value Source: NWS Daily Summary

Daily Weather History Graph

Daily Weather History Graph

Search for Another Location

Airport or City:

Trip Planner

Search our weather history database for the weather conditions in past years. The results will help you decide how hot, cold, wet, or windy it might be!

Date:

Astronomy

Jan. 31, 2013 Rise Set
Actual Time 7:18 AM EST 5:54 PM EST
Civil Twilight 6:52 AM EST 6:20 PM EST
Nautical Twilight 6:22 AM EST 6:49 PM EST
Astronomical Twilight 5:53 AM EST 7:18 PM EST
Moon 10:35 PM EST (1/31) 9:34 AM EST (1/31)
Length of Visible Light 11h 28m
Length of Day
10h 36m
Waning Gibbous, 80% of the Moon is Illuminated
Jan 31
Waning Gibbous
Feb 3
Last Quarter
Feb 10
New
Feb 17
First Quarter
Feb 25
Full

Hourly Weather History & Observations

Time (EST) Temp. Windchill Dew Point Humidity Pressure Visibility Wind Dir Wind Speed Gust Speed Precip Events Conditions
12:15 AM 55.4 °F - 55.4 °F 100% 29.75 in 5.0 mi West 10.4 mph - N/A Rain Rain
12:35 AM 53.6 °F - 53.6 °F 100% 29.75 in 7.0 mi SW 10.4 mph - N/A Rain Light Rain
1:15 AM 53.6 °F - 51.8 °F 94% 29.77 in 10.0 mi WSW 12.7 mph - N/A   Overcast
1:35 AM 51.8 °F - 51.8 °F 100% 29.78 in 10.0 mi SW 10.4 mph - N/A   Overcast
1:55 AM 51.8 °F - 50.0 °F 94% 29.79 in 10.0 mi WSW 10.4 mph 16.1 mph N/A   Overcast
2:15 AM 51.8 °F - 50.0 °F 94% 29.80 in 10.0 mi WSW 11.5 mph 18.4 mph N/A   Overcast
2:35 AM 51.8 °F - 50.0 °F 94% 29.80 in 10.0 mi WSW 10.4 mph 17.3 mph N/A   Overcast
2:55 AM 51.8 °F - 48.2 °F 88% 29.80 in 10.0 mi West 12.7 mph 19.6 mph N/A   Overcast
3:35 AM 51.8 °F - 44.6 °F 76% 29.83 in 10.0 mi West 16.1 mph 25.3 mph N/A   Mostly Cloudy
3:55 AM 51.8 °F - 42.8 °F 71% 29.84 in 10.0 mi West 12.7 mph 21.9 mph N/A   Overcast
4:15 AM 51.8 °F - 42.8 °F 71% 29.84 in 10.0 mi West 18.4 mph 24.2 mph N/A   Overcast
4:35 AM 50.0 °F - 35.6 °F 58% 29.87 in 10.0 mi WNW 25.3 mph 32.2 mph N/A   Overcast
4:55 AM 48.2 °F - 32.0 °F 54% 29.88 in 10.0 mi West 17.3 mph 28.8 mph N/A   Scattered Clouds
5:15 AM 46.4 °F 39.5 °F 32.0 °F 57% 29.89 in 10.0 mi West 17.3 mph 26.5 mph N/A   Clear
5:35 AM 46.4 °F 39.5 °F 32.0 °F 57% 29.90 in 10.0 mi West 17.3 mph 26.5 mph N/A   Clear
6:15 AM 44.6 °F 37.2 °F 32.0 °F 61% 29.93 in 10.0 mi West 17.3 mph 23.0 mph N/A   Clear
6:35 AM 44.6 °F 38.1 °F 32.0 °F 61% 29.94 in 10.0 mi West 13.8 mph 24.2 mph N/A   Clear
6:55 AM 44.6 °F 39.2 °F 32.0 °F 61% 29.96 in 10.0 mi West 10.4 mph 19.6 mph N/A   Clear
7:15 AM 44.6 °F 39.2 °F 32.0 °F 61% 29.98 in 10.0 mi West 10.4 mph 18.4 mph N/A   Clear
7:35 AM 44.6 °F 38.8 °F 32.0 °F 61% 29.96 in 10.0 mi West 11.5 mph 18.4 mph N/A   Clear
7:55 AM 44.6 °F 38.1 °F 32.0 °F 61% 29.98 in 10.0 mi West 13.8 mph 19.6 mph N/A   Clear
8:15 AM 44.6 °F 37.4 °F 32.0 °F 61% 30.01 in 10.0 mi WNW 16.1 mph 20.7 mph N/A   Clear
8:35 AM 44.6 °F 36.1 °F 28.4 °F 53% 30.02 in 10.0 mi WNW 21.9 mph 28.8 mph N/A   Clear
8:55 AM 44.6 °F 36.9 °F 26.6 °F 49% 30.03 in 10.0 mi West 18.4 mph 28.8 mph N/A   Clear
9:15 AM 44.6 °F 36.9 °F 26.6 °F 49% 30.03 in 10.0 mi WNW 18.4 mph 26.5 mph N/A   Clear
9:35 AM 44.6 °F 37.8 °F 26.6 °F 49% 30.03 in 10.0 mi WNW 15.0 mph 21.9 mph N/A   Clear
9:55 AM 44.6 °F 38.1 °F 26.6 °F 49% 30.04 in 10.0 mi WNW 13.8 mph 24.2 mph N/A   Clear
10:15 AM 46.4 °F 40.4 °F 26.6 °F 46% 30.04 in 10.0 mi WNW 13.8 mph 23.0 mph N/A   Clear
10:35 AM 46.4 °F 41.1 °F 26.6 °F 46% 30.05 in 10.0 mi West 11.5 mph 21.9 mph N/A   Clear
10:55 AM 48.2 °F - 26.6 °F 43% 30.05 in 10.0 mi West 17.3 mph - N/A   Clear
11:15 AM 50.0 °F - 24.8 °F 37% 30.05 in 10.0 mi WNW 16.1 mph 19.6 mph N/A   Clear
11:35 AM 50.0 °F - 26.6 °F 40% 30.05 in 10.0 mi West 10.4 mph 18.4 mph N/A   Clear
11:55 AM 50.0 °F - 24.8 °F 37% 30.05 in 10.0 mi West 10.4 mph 18.4 mph N/A   Clear
12:15 PM 51.8 °F - 24.8 °F 35% 30.06 in 10.0 mi WNW 12.7 mph 20.7 mph N/A   Clear
12:55 PM 53.6 °F - 23.0 °F 30% 30.03 in 10.0 mi West 18.4 mph 24.2 mph N/A   Clear
1:15 PM 53.6 °F - 23.0 °F 30% 30.04 in 10.0 mi West 16.1 mph 23.0 mph N/A   Clear
1:35 PM 53.6 °F - 23.0 °F 30% 30.03 in 10.0 mi West 17.3 mph 25.3 mph N/A   Clear
1:55 PM 53.6 °F - 23.0 °F 30% 30.03 in 10.0 mi West 16.1 mph 24.2 mph N/A   Clear
2:15 PM 53.6 °F - 23.0 °F 30% 30.03 in 10.0 mi West 16.1 mph 26.5 mph N/A   Clear
2:35 PM 53.6 °F - 21.2 °F 28% 30.03 in 10.0 mi WNW 17.3 mph 23.0 mph N/A   Clear
2:55 PM 55.4 °F - 21.2 °F 26% 30.03 in 10.0 mi WSW 16.1 mph 24.2 mph N/A   Clear
3:15 PM 55.4 °F - 21.2 °F 26% 30.03 in 10.0 mi West 19.6 mph 25.3 mph N/A   Clear
3:35 PM 53.6 °F - 19.4 °F 26% 30.04 in 10.0 mi West 19.6 mph 25.3 mph N/A   Clear
3:55 PM 53.6 °F - 19.4 °F 26% 30.05 in 10.0 mi WNW 12.7 mph 26.5 mph N/A   Clear
4:15 PM 53.6 °F - 17.6 °F 24% 30.05 in 10.0 mi West 17.3 mph 24.2 mph N/A   Clear
4:35 PM 53.6 °F - 17.6 °F 24% 30.06 in 10.0 mi West 15.0 mph 20.7 mph N/A   Clear
4:55 PM 53.6 °F - 17.6 °F 24% 30.07 in 10.0 mi West 17.3 mph 25.3 mph N/A   Clear
5:15 PM 51.8 °F - 19.4 °F 28% 30.07 in 10.0 mi West 11.5 mph 17.3 mph N/A   Clear
5:35 PM 51.8 °F - 19.4 °F 28% 30.08 in 10.0 mi West 10.4 mph 24.2 mph N/A   Clear
6:15 PM 48.2 °F - 23.0 °F 37% 30.10 in 10.0 mi West 4.6 mph - N/A   Clear
6:55 PM 46.4 °F 45.2 °F 23.0 °F 40% 30.12 in 10.0 mi WSW 3.5 mph - N/A   Clear
7:15 PM 44.6 °F 41.4 °F 23.0 °F 43% 30.12 in 10.0 mi WSW 5.8 mph - N/A   Clear
7:35 PM 44.6 °F 43.1 °F 23.0 °F 43% 30.13 in 10.0 mi West 3.5 mph - N/A   Clear
7:55 PM 42.8 °F 41.1 °F 26.6 °F 53% 30.14 in 10.0 mi WSW 3.5 mph - N/A   Clear
8:35 PM 42.8 °F 39.3 °F 26.6 °F 53% 30.15 in 10.0 mi West 5.8 mph - N/A   Clear
8:55 PM 42.8 °F 39.3 °F 26.6 °F 53% 30.16 in 10.0 mi West 5.8 mph - N/A   Clear
9:15 PM 42.8 °F 38.6 °F 26.6 °F 53% 30.16 in 10.0 mi West 6.9 mph - N/A   Clear
9:35 PM 42.8 °F 39.3 °F 26.6 °F 53% 30.17 in 10.0 mi West 5.8 mph - N/A   Clear
9:55 PM 42.8 °F 40.1 °F 26.6 °F 53% 30.18 in 10.0 mi West 4.6 mph - N/A   Clear
10:15 PM 41.0 °F 37.1 °F 26.6 °F 57% 30.18 in 10.0 mi West 5.8 mph - N/A   Clear
10:35 PM 41.0 °F 36.4 °F 26.6 °F 57% 30.19 in 10.0 mi West 6.9 mph - N/A   Clear
10:55 PM 41.0 °F 38.0 °F 26.6 °F 57% 30.19 in 10.0 mi WSW 4.6 mph - N/A   Clear
11:15 PM 41.0 °F 37.1 °F 26.6 °F 57% 30.20 in 10.0 mi WSW 5.8 mph - N/A   Clear
11:55 PM 37.4 °F 32.8 °F 26.6 °F 65% 30.20 in 10.0 mi WSW 5.8 mph - N/A   Clear